Location: *
(46.1866°S, 178.5290°W)
Time: 05:32:17
(UTC+00:00)

CZ-4B R/B - Pass Details

Date: 25 September 2021
Orbit: 809 x 881 km, 99.1° (Epoch: 17 October)

Event Time Altitude Azimuth Distance (km) Brightness Sun altitude
Rises 15:45:03 0° 83° (E) 3,418 7.4 -19.5°
Reaches altitude 10° 15:50:10 10° 124° (SE) 2,472 6.8 -18.7°
Maximum altitude 15:50:43 10° 130° (SE) 2,461 6.7 -18.6°
Drops below altitude 10° 15:51:16 10° 136° (SE) 2,470 6.6 -18.5°
Sets 15:56:21 0° 177° (S) 3,396 6.7 -17.7°
